COSMOS 1324

导读

COSMOS 1324(宇宙1324)是独联体(CIS,继承苏联航天遗产)于1981年11月28日发射的人造卫星,隶属于苏联“宇宙”系列卫星家族。该系列卫星是苏联规模最大的卫星集群,承担科学试验、军事侦察、轨道技术验证等多重任务。 作为冷战时期苏东航天活动的代表性产物,它见证了苏联航天工程的发展积累,延续了“宇宙”系列低成本多任务的技术路线,是当时苏联航天体系持续推进轨道部署的典型成果,在人类航天发展史上留下了独特印记。

Basic Information
目录编号:
12979
目录名称:
COSMOS 1324
国际标识:
1981-116E
轨道中心:
EARTH
卫星名称:
COSMOS 1324
卫星全名:
--
卫星状态:
在轨 (已飞行16276 天)
发射日期:
1981-11-28 UTC
国别 :
俄罗斯(独联体) (CIS)
星等 :
--
Orbit Information
数据来源 国际轨道数据 AOE轨道数据
星历时间 2026-06-19T22:43:00+0800
1天前
查看轨道信息
2026-06-15T11:00:00+0800
6天前
查看轨道信息
半长轴 7928.536km 7928.55km
偏心率 0.0087589 0.0087132
轨道倾角 73.983° 73.984°
近地点辐角 199.498° 205.737°
升交点赤经 350.507° 356.266°
平近点角 228.836° 159.513°
近地点 1480.953km 1481.329km
远地点 1619.845km 1619.497km
周期 117.098分钟 117.098分钟
每日圈数 12.2974 12.297367
Detailed Information
使用方式:
暂无
2D Orbit Map
3D Orbit Map
Orbit Altitude Analysis Chart
Orbit Inclination Analysis Chart
Orbit Comprehensive Analysis Chart
View Comprehensive Chart